Location: Azul
(36.7830°S, 59.8500°W)
Time: 08:19:44
(UTC-03:00)

ISS - Pass Details

Date: 23 May 2020
Orbit: 417 x 419 km, 51.6° (Epoch: 31 May)

Event Time Altitude Azimuth Distance (km) Brightness Sun altitude
Exits shadow 05:33:41 16° 49° (NE) 1,199 -0.9 -28.4°
Maximum altitude 05:33:49 16° 52° (NE) 1,198 -0.9 -28.4°
Drops below altitude 10° 05:35:59 10° 91° (E) 1,517 0.0 -27.9°
Sets 05:38:40 0° 113° (ESE) 2,390 1.0 -27.4°
